Pagrindinis puslapis
METAR-TAF:

METAR-TAF

Oro uostai :

Wilbarger County Airport

Vernon, Teksasas, Jungtinės Amerikos Valstijos

platuma: 34-13-32N, ilguma: 099-17-01W, Aukštis: 386 m

Dabartinis oras

Ataskaita buvo paskelbta 13 minutes, ne 03:35 UTC
Vėjas 6 kt iš Pietų
Temperatūra 31°C
Drėgmė 36%
Slėgis 1013 hPa
Matomumas: 16.1 km
Giedras dangus

METAR: KF05 160335Z AUTO 18006KT 10SM CLR 31/14 A2991 RMK AO2 T03090135

Laikas: 22:48 (03:48 UTC)


TAF: trūkstamas

Orai ataskaitas ir orų prognozės (METAR, TAF).

turimą stotys yra geltonos ir raudonos taškus žemėlapyje.

Perkelti pele per norėdami pamatyti stoties vardą.

Tada spustelėkite, norėdami matyti oro stebėjimo ir prognozės.

Norėdami pakeisti žemėlapį: spustelėkite ant žalios mygtukų su juodo kryžiaus žemyn,; žalią mygtuką su brūkšneliu, jei norite nutolinti; arba žalių rodyklių gretimoms žemėlapius.


METAR-TAF: